Weather Roundup
Issued by NWS Springfield, MO

Home | Current Version | Previous Version | Text Only | Print | Product List | Glossary On
Versions: 1 2 3 4 5 6 7 8 9 10 11 12 13 14 15 16 17 18 19 20 21 22 23 24 25 26 27 28 29 30 31 32 33 34 35 36 37 38 39 40 41 42 43 44 45 46 47 48 49 50
000
NZUS99 KSGF 031757
HRRSGF

HOURLY WEATHER
NATIONAL WEATHER SERVICE SPRINGFIELD MO
100 PM CDT TUE MAY 03 2016

......SGF CWA......

CITY           SKY/WX    TMP DP  RH WIND       PRES   REMARKS
SPRINGFIELD    MOSUNNY   61  41  47 MISG      30.07F
6HR MIN TEMP:  45; 6HR MAX TEMP:  63;

JOPLIN         SUNNY     64  40  41 CALM      30.09F
6HR MIN TEMP:  41; 6HR MAX TEMP:  65;

WEST PLAINS    PTSUNNY   61  43  51 MISG      30.05F
6HR MIN TEMP:  50; 6HR MAX TEMP:  63;

ROLLA          PTSUNNY   60  46  59 NW6       30.03F
6HR MIN TEMP:  47; 6HR MAX TEMP:  61;

BRANSON        PTSUNNY   63  39  42 N12       30.08F

......SURROUNDING SGF CWA......

CITY           SKY/WX    TMP DP  RH WIND       PRES   REMARKS
CHANUTE        SUNNY     66  43  43 VRB3      30.08F
PARSONS        SUNNY     66  43  43 VRB3      30.09F
COFFEYVILLE    SUNNY     67  46  47 S7        30.09F
EMPORIA        SUNNY     66  41  40 SW8       30.06F
HARRISON AR    PTSUNNY   61  42  49 VRB5      30.08F

......KANSAS AND MISSOURI......

CITY           SKY/WX    TMP DP  RH WIND       PRES   REMARKS
KANSAS CTY INT PTSUNNY   66  43  43 SW8       30.06F
SEDALIA        MOSUNNY   65  45  48 NW9       30.07F
ST JOSEPH      PTSUNNY   66  40  38 SW10      30.05F
ST LOUIS       PTSUNNY   62  43  49 NW8       30.02F
WICHITA        MOSUNNY   68  46  45 S12       30.06F
TOPEKA         MOSUNNY   66  40  38 MISG      30.06F
OLATHE         PTSUNNY   63  40  42 SW9       30.07F

......TENNESSEE......

CITY           SKY/WX    TMP DP  RH WIND       PRES   REMARKS
MEMPHIS        NOT AVBL
NASHVILLE      PTSUNNY   63  48  58 N10       29.97F

......ARKANSAS.......

CITY           SKY/WX    TMP DP  RH WIND       PRES   REMARKS
FAYETTEVILLE   MOSUNNY   61  43  51 VRB6G16   30.09F
FT SMITH       PTSUNNY   67  43  41 W10       30.09F
LITTLE ROCK    CLOUDY    65  45  48 W10       30.07F

......OKLAHOMA.......

CITY           SKY/WX    TMP DP  RH WIND       PRES   REMARKS
TULSA          MOSUNNY   67  45  45 VRB3      30.09F
PONCA CITY     SUNNY     68  42  38 W12       30.08F
MCALESTER      MOSUNNY   68  45  43 VRB6      30.12F
OKLAHOMA CITY  PTSUNNY   67  37  33 SW6       30.10F

......IOWA............

CITY           SKY/WX    TMP DP  RH WIND       PRES   REMARKS
DES MOINES     NOT AVBL
QUAD CITIES    PTSUNNY   65  38  36 W14       29.95F

......ILLINOIS........

CITY           SKY/WX    TMP DP  RH WIND       PRES   REMARKS
QUINCY         NOT AVBL
CHICAGO        PTSUNNY   63  38  39 W7        29.89F



USA.gov is the U.S. government's official web portal to all federal, state and local government web resources and services.